Meteo Giornale » Osservazioni meteo Giappone » Zama Airfield
ore: 21:55 - Osservazioni Meteo Zama Airfield
Lat. 35° 31' N Lon. 139° 24' E Alt. 109 metri s.l.m.
26 °C
Coperto
Temp. 24 Ore
24 °C
29 °C
Nord
0 Km/h
Dew point 23 °C
Umidità 83 %
Visibilità 10 Km
Il sole sorge alle ore 05:14
Il sole tramonta alle ore 18:10
| Data e Ora | Cielo e Fenomeni | T °C | DP °C | Um. % | Pres. hPa | Vis. km | Vento km/h | |
|---|---|---|---|---|---|---|---|---|
| Oggi h: 21:55 | Coperto | 26 | 23 | 83 | 1017 | 10 | N 0 | |
| Oggi h: 21:00 | Coperto | 26 | 23 | 83 | 1018 | 10 | N 0 | |
| Oggi h: 20:55 | Sereno | 26 | 23 | 83 | 1018 | 10 | N 0 | |
| Oggi h: 19:55 | Coperto | 27 | 23 | 78 | 1017 | 10 | N 0 | |
| Oggi h: 19:20 | Coperto | 27 | 23 | 78 | 1017 | 10 | N 0 | |
| Oggi h: 18:55 | Coperto | 27 | 23 | 78 | 1017 | 10 | N 0 | |
| Oggi h: 17:55 | Coperto | 27 | 22 | 74 | 1016 | 10 | N 0 | |
| Oggi h: 16:55 | Coperto | 28 | 22 | 69 | 1016 | 10 | E 7.4 | |
| Oggi h: 16:45 | Coperto | 27 | 22 | 74 | 1016 | 10 | N 0 | |
| Oggi h: 16:40 | Coperto | 28 | 22 | 69 | 1016 | 10 | N 0 | |
| Oggi h: 15:55 | Coperto | 28 | 22 | 69 | 1016 | 10 | E/NE 7.4 | |
| Oggi h: 14:55 | Coperto | 28 | 21 | 65 | 1016 | 10 | N 5.5 | |
| Oggi h: 14:10 | Coperto | 29 | 22 | 66 | 1016 | 10 | N 5.5 | |
| Oggi h: 13:55 | Coperto | 28 | 22 | 69 | 1016 | 10 | N 0 | |
| Oggi h: 12:55 | Coperto | 29 | 22 | 66 | 1017 | 10 | N 0 | |
| Oggi h: 12:50 | Coperto | 28 | 22 | 69 | 1017 | 10 | N 0 | |
| Oggi h: 12:40 | Coperto | 28 | 22 | 69 | 1017 | 10 | N 0 | |
| Oggi h: 11:55 | Coperto | 28 | 21 | 65 | 1017 | 10 | N 0 | |
| Oggi h: 10:55 | Coperto | 28 | 22 | 69 | 1017 | 10 | N 7.4 | |
| Oggi h: 09:55 | Coperto | 27 | 21 | 69 | 1018 | 10 | N 7.4 | |
| Oggi h: 08:55 | Coperto | 26 | 21 | 73 | 1018 | 10 | N/NO 7.4 | |
| Oggi h: 08:00 | Molto Nuvoloso | 26 | 21 | 73 | 1018 | 10 | N 0 | |
| Oggi h: 07:55 | Molto Nuvoloso | 26 | 21 | 73 | 1018 | 10 | N 5.5 | |
| Oggi h: 07:45 | Coperto | 25 | 21 | 78 | 1018 | 10 | N 5.5 | |
| Oggi h: 07:35 | Coperto | 25 | 21 | 78 | 1018 | 10 | N 5.5 | |
| Oggi h: 06:55 | Coperto | 24 | 21 | 83 | 1018 | 10 | N 5.5 | |
| Oggi h: 06:10 | Coperto | 24 | 21 | 83 | 1018 | 10 | N 0 | |
| Oggi h: 05:55 | Coperto | 24 | 21 | 83 | 1018 | 10 | N 0 | |
| Oggi h: 04:55 | Coperto | 24 | 20 | 78 | 1018 | 10 | N 0 | |
| Oggi h: 03:55 | Coperto | 24 | 20 | 78 | 1018 | 10 | N 0 | |
| Oggi h: 03:45 | Coperto | 24 | 20 | 78 | 1018 | 10 | N 0 | |
| Oggi h: 03:29 | Pioggia | 24 | 20 | 78 | 1018 | 10 | N 0 | |
| Oggi h: 02:55 | Coperto | 24 | 20 | 78 | 1018 | 10 | N 0 | |
| Oggi h: 02:41 | Coperto | 24 | 20 | 78 | 1018 | 10 | N 0 | |
| Oggi h: 02:11 | Coperto | 24 | 20 | 78 | 1018 | 10 | N 0 | |
| Oggi h: 02:01 | Pioggia | 24 | 20 | 78 | 1018 | 10 | N 0 | |
| Oggi h: 01:55 | Coperto | 24 | 20 | 78 | 1018 | 10 | N 0 | |
| Oggi h: 01:40 | Coperto | 24 | 20 | 78 | 1018 | 10 | N 0 | |
| Oggi h: 00:55 | Coperto | 24 | 20 | 78 | 1018 | 10 | N 0 | |
| Ieri h: 23:55 | Coperto | 24 | 20 | 78 | 1018 | 10 | N 0 | |
| Ieri h: 23:35 | Coperto | 24 | 20 | 78 | 1018 | 10 | N 0 | |
| Ieri h: 22:55 | Coperto | 24 | 21 | 83 | 1018 | 10 | N 5.5 | |



